Tracking 29494 objects as of 8-Sep-2024
HD Live streaming from Space Station
objects crossing your sky now

FENGYUN 1C DEB

Track FENGYUN 1C DEB now!
10-day predictions


NORAD ID: 32355
Int'l Code: 1999-025CYY
Perigee: 644.1 km
Apogee: 774.4 km
Inclination: 100.4 °
Period: 98.8 minutes
Semi major axis: 7080 km
RCS: 0.0091 m2 (small)
Launch date: May 10, 1999
Source: People's Republic of China (PRC)
Launch site: Taiyaun Space Center, China (TSC)

Note: This is SATELLITE DEBRIS
Your satellite tracking list
Your tracking list is empty




NASA's NSSDC Master Catalog

Two Line Element Set (TLE):
1 32355U 99025CYY 24250.64017571  .00042176  00000-0  87694-2 0  9993
2 32355 100.3557  34.2281 0092064  19.3275  44.9362 14.57231914898098
Source of the keplerian elements: AFSPC